Location: Unspecified
(44.4377°N, 88.0525°W)
Time: 04:49:59
(UTC-05:00)

Cosmos 2058 - Visible Passes

Search period start: 01 August 2014 00:00
Search period end: 11 August 2014 00:00
Orbit: 572 x 593 km, 82.5° (Epoch: 01 August)

Date Brightness Start Highest point End Pass type
(mag) Time Alt. Az. Time Alt. Az. Time Alt. Az.
01 Aug 3.6 03:05:52 10° N 03:10:01 53° ENE 03:12:10 26° SE visible
01 Aug 4.9 04:44:34 10° NW 04:46:36 13° W 04:48:31 10° WSW visible
02 Aug 3.0 03:11:41 10° N 03:15:55 76° E 03:17:27 38° SSE visible
03 Aug 5.9 01:43:25 10° NE 01:44:06 10° ENE 01:44:46 10° ENE visible
03 Aug 2.8 03:17:34 10° NNW 03:21:47 76° W 03:22:46 51° SSW visible
04 Aug 5.5 01:47:51 10° NE 01:50:09 14° ENE 01:51:47 12° E visible
04 Aug 3.1 03:23:31 10° NNW 03:27:37 52° W 03:28:08 49° WSW visible
05 Aug 5.1 01:53:07 10° NNE 01:56:11 19° ENE 01:57:10 18° E visible
05 Aug 3.6 03:29:33 10° NNW 03:33:26 37° W 03:33:32 37° W visible
06 Aug 4.6 01:58:37 10° NNE 02:02:10 26° ENE 02:02:36 25° E visible
06 Aug 4.1 03:35:41 10° NNW 03:38:58 26° W 03:38:58 26° W visible
07 Aug 4.2 02:04:14 10° N 02:08:03 36° ENE 02:08:03 36° ENE visible
07 Aug 4.6 03:41:58 10° NW 03:44:25 19° WNW 03:44:25 19° WNW visible
08 Aug 3.8 02:09:57 10° N 02:13:32 47° NE 02:13:32 47° NE visible
08 Aug 5.0 03:48:31 10° NW 03:49:54 13° WNW 03:49:54 13° WNW visible
09 Aug 3.6 02:15:44 10° N 02:19:02 52° NNE 02:19:02 52° NNE visible
10 Aug 3.8 02:21:36 10° N 02:24:33 45° NNW 02:24:33 45° NNW visible
